Home   Weather   Mount Isa   Past weeks

Flag for Australia Past Weather in Mount Isa, Queensland, Australia — Yesterday and Last 2 Weeks

68 °F

Sprinkles. Overcast.

Feels Like: 68 °F
Forecast: 66 / 81 °F
Wind: 16 mph from South

Location: Mount Isa Amo

Current Time: Oct 22, 2016 at 6:58:29 PM

Latest Report: Oct 22, 2016 at 6:00 PM

Visibility: N/A

Pressure: 30.07 "Hg

Humidity: 78%

Dew Point: 61 °F

Location of Mount IsaLocation

Past Weather in Mount Isa — Graph


Mount Isa Temperature Yesterday

Maximum temperature yesterday: 100 °F (at 1:00 PM)
Minimum temperature yesterday: 64 °F (at 3:30 AM)
Average temperature yesterday: 82 °F

High & Low Weather Summary for the Past Weeks

High100 °F (Oct 21, 1:00 PM)94% (Oct 22, 9:00 AM)30.15 "Hg (Oct 22, 9:00 AM)
Low52 °F (Oct 13, 6:00 AM)9% (Oct 15, 4:30 PM)29.77 "Hg (Oct 16, 4:30 PM)
Average77 °F31%29.97 "Hg
* Reported Oct 7 5:00 PM — Oct 22 5:00 PM, Mount Isa, Weather by CustomWeather, © 2016

Note: Actual official high and low records may vary slightly from our data, if they occured in-between our weather recording intervals... More about our weather records


Mount Isa Weather History for the Previous 24 Hours

Scroll right to see more
Time TempWeatherWind HumidityBarometerVisibility
5:00 PM
Sat, Oct 22
70 °FOvercast.8 mph78%30.01 "HgN/A
4:30 PM68 °FOvercast.8 mph78%30.01 "HgN/A
4:00 PM68 °FOvercast.8 mph78%30.04 "HgN/A
3:00 PM68 °FMostly cloudy.12 mph83%30.07 "HgN/A
2:00 PM66 °FCloudy.15 mph88%30.07 "HgN/A
1:30 PM68 °FMostly cloudy.14 mph83%30.07 "HgN/A
1:00 PM70 °FBroken clouds.12 mph83%30.07 "HgN/A
12:45 PM70 °FBroken clouds.12 mph83%30.07 "HgN/A
12:30 PM68 °FMostly cloudy.10 mph88%30.09 "HgN/A
12:00 PM68 °FLight rain. More clouds than sun.9 mph88%30.09 "HgN/A
11:00 AM66 °FRain. More clouds than sun.8 mph94%30.12 "HgN/A
10:00 AM64 °FRain. Mostly cloudy.10 mph94%30.12 "HgN/A
9:30 AM64 °FRain. Overcast.8 mph94%30.09 "HgN/A
9:00 AM64 °FRain. Overcast.9 mph94%30.09 "HgN/A
8:00 AM66 °FSprinkles. Mostly cloudy.12 mph88%30.07 "HgN/A
7:30 AM66 °FLight rain. Mostly cloudy.13 mph88%30.07 "HgN/A
7:00 AM66 °FSprinkles. Partly sunny.17 mph88%30.07 "HgN/A
6:00 AM66 °FSprinkles. Overcast.13 mph83%30.07 "HgN/A
5:30 AM68 °FRain showers. Mostly cloudy.17 mph78%30.07 "HgN/A
5:00 AM70 °FSprinkles. Overcast.16 mphN/A30.04 "HgN/A
4:00 AM72 °FSprinkles. Overcast.18 mph61%30.01 "HgN/A
3:00 AM75 °FMostly cloudy.13 mph54%30.04 "HgN/A
2:30 AM75 °FOvercast.12 mph54%30.04 "HgN/A
2:00 AM75 °FOvercast.16 mph54%30.04 "HgN/A
1:00 AM75 °FPartly cloudy.13 mph57%30.04 "HgN/A
12:00 AM75 °FMostly cloudy.13 mph57%30.04 "HgN/A
11:00 PM
Fri, Oct 21
75 °FOvercast.20 mph65%30.01 "HgN/A
10:00 PM77 °FMostly cloudy.12 mph65%30.01 "HgN/A
9:30 PM77 °FSprinkles. Mostly cloudy.18 mph61%30.01 "HgN/A
9:00 PM79 °FSprinkles. Mostly cloudy.13 mph61%29.95 "HgN/A
8:30 PM84 °FOvercast.3 mph45%29.92 "HgN/A
8:00 PM81 °FOvercast.2 mph62%29.89 "HgN/A
7:30 PM81 °FClear.7 mph66%29.89 "HgN/A
7:00 PM82 °FPassing clouds.2 mph58%29.86 "HgN/A
6:30 PM82 °FScattered clouds.7 mph55%29.86 "HgN/A
6:00 PM84 °FSunny.8 mph51%29.86 "HgN/A
Weather by CustomWeather, © 2016

See weather overviewHow to use our weather pages